www.pogodaiklimat.ru

Погода и климат >> Архив погоды >> Корея >> Сосан


ПОГОДА в Сосане

  • Прогноз погоды в Сосане
  • Монитор погоды в Сосане

АРХИВ ПОГОДЫ в Сосане

Время (UTC), дата Ветер
(напр.,м/с)
 
Видим.   Явления Облачность Т
(С)
Тd
(С)
f
(%)
Тe
(С)
Тes
(С)
Комфортность P
(гПа)
Po
(гПа)
Тmin
(С)
Tmax
(С)
R
(мм)
R24
(мм)
S
(см)
00 12.07 ЮЗ 3 50 км 8/0
[]
+22.9 +19.2 80 +29 +34 очень
душно
1008.7 1005.8 +17.6 0.0
03 12.07 Ю 7 30 км 8/0
[]
+24.2 +19.9 77 +30 +33 очень
душно
1007.7 1004.8
06 12.07 З 4 45 км 6/0
[]
+26.6 +18.1 60 +31 +38 душно 1006.2 1003.3
09 12.07 Ю 3 27 км 8/0
[]
+24.3 +18.2 69 +29 +30 душно 1005.4 1002.5
12 12.07 Ю 2 15 км 4/0
[]
+21.9 +20.8 93 +28 +28 душно 1006.1 1003.2 +27.0
15 12.07 Ю 2 10 км 8/0
[]
+21.3 +20.7 96 +27 +27 душно 1005.7 1002.8
18 12.07 Ю 2 16 км 5/0
[]
+21.5 +20.9 96 +27 +27 душно 1004.4 1001.5
21 12.07 ЮВ 2 7000 м 10/0
[]
+21.3 +20.6 96 +27 +27 душно 1003.6 1000.7
00 13.07 ЮЗ 2 25 км ?/? +20.7 +20.2 97 +26 +26 душно 1003.3 1000.4 +20.0 52
03 13.07 ЮВ 2 27 км 9/0
[]
+21.7 +21.1 96 +28 +39 душно 1002.9 1000.0
06 13.07 Ю 2 50 км ?/? +23.0 +20.3 85 +30 +30 очень
душно
1001.3 998.4
09 13.07 Ю 2 19 км 1/0
[]
+24.0 +20.3 80 +30 +32 очень
душно
1000.0 997.2
12 13.07 Ю 2 23 км ясно +21.7 +21.1 96 +28 +28 душно 1001.6 998.7 +25.1 0.1
15 13.07 штиль 0 5000 м 4/0
[]
+21.0 +20.4 96 +26 +26 душно 1002.3 999.4
18 13.07 штиль 0 5000 м 3/0
[]
+20.4 +19.9 97 +24 +24 комфорт 1001.8 998.9
21 13.07 Ю 1 5000 м 5/0
[]
+21.1 +20.5 96 +26 +26 душно 1001.9 999.0
00 14.07 В 2 13 км 8/0
[]
+23.5 +20.6 84 +29 +35 душно 1002.6 999.7 +20.4 0.0
03 14.07 С 1 50 км 6/0
[]
+27.8 +19.8 62 +34 +51 опасность
солнечного
удара
1002.8 1000.0
06 14.07 ЮЗ 4 40 км 8/0
[]
+27.6 +21.6 70 +35 +41 очень
душно
1002.1 999.3
09 14.07 ЮЗ 3 20 км 3/0
[]
+26.4 +21.1 73 +33 +35 очень
душно
1001.8 999.0
12 14.07 Ю 2 3800 м 1/0
[]
+23.1 +22.5 96 +32 +32 очень
душно
1004.5 1001.6 +28.2 0.0
15 14.07 ЮВ 1 3200 м 3/0
[]
+22.7 +22.1 96 +31 +31 очень
душно
1005.6 1002.7
18 14.07 ЮВ 1 900 м 1/0
[]
+22.3 +21.7 96 +29 +29 очень
душно
1005.4 1002.5
21 14.07 штиль 0 2900 м 6/0
[]
+22.1 +21.5 96 +29 +29 очень
душно
1006.2 1003.3
00 15.07 Ю 2 4500 м ?/? +23.5 +22.2 92 +30 +30 очень
душно
1006.9 1004.0 +21.5 0.0
03 15.07 В 1 1400 м 10/0
[]
+23.1 +22.5 96 +32 +44 очень
душно
1006.9 1004.0
06 15.07 Ю 3 45 км 8/0
[]
+25.7 +20.9 75 +32 +40 очень
душно
1006.8 1003.9
09 15.07 Ю 3 25 км 8/0
[]
+24.6 +20.0 76 +30 +31 очень
душно
1006.9 1004.0
12 15.07 штиль 0 9000 м 4/0
[]
+21.8 +21.2 96 +28 +28 душно 1008.7 1005.8 +25.9 5
15 15.07 Ю 2 2800 м 10/0
[]
+21.4 +20.8 96 +27 +27 душно 1009.6 1006.7
18 15.07 Ю 4 7000 м 8/0
[]
+21.5 +20.9 96 +27 +27 душно 1009.4 1006.5
21 15.07 ЮВ 1 5000 м 9/0
[]
+21.5 +20.9 96 +27 +27 душно 1010.4 1007.5
00 16.07 Ю 4 11 км 6/0
[]
+24.0 +21.5 86 +31 +35 очень
душно
1011.1 1008.2 +21.3 3
03 16.07 ЮЗ 3 45 км 8/0
[]
+26.7 +19.0 63 +32 +42 очень
душно
1011.2 1008.3
06 16.07 СЗ 3 12 км 9/0
[]
+26.9 +21.8 74 +35 +42 очень
душно
1010.7 1007.8
09 16.07 ЮЗ 2 21 км 5/0
[]
+26.4 +19.2 65 +32 +34 очень
душно
1010.3 1007.4
12 16.07 С 1 11 км 6/0
[]
+23.0 +21.0 89 +31 +31 очень
душно
1011.3 1008.4 +28.3 0.0
15 16.07 СВ 1 22 км 8/0
[]
+21.4 +20.8 96 +27 +27 душно 1012.4 1009.5
18 16.07 штиль 0 19 км 8/0
[]
+20.4 +19.9 97 +24 +24 комфорт 1012.1 1009.2
21 16.07 В 1 9000 м 8/0
[]
+20.4 +19.9 97 +26 +26 душно 1012.2 1009.3
00 17.07 З 2 24 км 5/0
[]
+24.9 +21.2 80 +31 +39 очень
душно
1012.0 1009.1 +19.9 0.0
03 17.07 З 1 45 км 8/0
[]
+27.9 +20.4 64 +35 +49 очень
душно
1011.8 1008.9
06 17.07 С 2 16 км ?/? +27.8 +22.0 71 +36 +36 очень
душно
1010.4 1007.5
09 17.07 СЗ 2 14 км 10/0
[]
+25.3 +19.4 70 +31 +32 очень
душно
1010.2 1007.3
12 17.07 В 1 16 км ?/? +23.7 +20.8 84 +30 +30 очень
душно
1010.4 1007.5 +28.5 0.0
15 17.07 С 1 50 км ?/? +23.0 +20.1 84 +30 +30 очень
душно
1011.0 1008.1
18 17.07 штиль 0 7000 м ?/? +22.4 +21.7 96 +30 +30 очень
душно
1010.8 1007.9
21 17.07 Ю 2 3400 м 10/0
[]
+22.1 +21.5 96 +29 +29 очень
душно
1010.8 1007.9
00 18.07 В 3 18 км 8/0
[]
+25.5 +21.5 79 +33 +37 очень
душно
1009.5 1006.6 +21.6 9
03 18.07 В 3 30 км 8/0
[]
+28.0 +20.5 64 +35 +45 очень
душно
1008.7 1005.9
06 18.07 В 3 50 км 5/0
[]
+30.1 +18.8 51 +35 +45 очень
душно
1007.5 1004.7
09 18.07 ЮЗ 3 20 км 8/0
[]
+26.6 +20.9 71 +33 +35 очень
душно
1007.5 1004.6
12 18.07 Ю 2 21 км 6/0
[]
+23.9 +21.7 88 +31 +31 очень
душно
1008.2 1005.3 +30.8 0.0
15 18.07 СВ 1 17 км 6/0
[]
+22.7 +22.0 96 +31 +31 очень
душно
1008.5 1005.6
18 18.07 СВ 1 20 км 3/0
[]
+22.7 +22.0 96 +31 +31 очень
душно
1007.4 1004.5

 

Местоположение метеостанции Сосан (Корея): широта 36.77 долгота 126.50 высота над уровнем моря 27 м.

В архиве по умолчанию представлена погода в Сосане за последнюю неделю. Архивные данные за месяц целиком и за предыдущие месяцы, начиная с января 2011 года, Вы можете получить, выбрав интересующий диапазон дат из раскрывающегося списка и нажав кнопку "Ввод!".


*Определитесь, кто Вы:
робот инопланетянин человек

Внимание! Время в таблицах - всемирное. Для получения местного времени необходимо прибавить поправку, которая равна 9 ч.

Смотрите также архив погоды в соседних городах и на ближайших метеорологических станциях:

Погода в Хонсоне (Корея) (21 км)
Погода в Порёне (Корея) (49 км)
Погода на Базе Camp Humphreys (Корея) (51 км)
Погода в Чхонане (Корея) (55 км)
Погода в Сувоне (Корея) (70 км)
Погода в Инчхоне (Корея) (79 км)
Погода в Чхонджу (Корея) (86 км)
Погода в Кунсане (Корея) (89 км)
Погода в Тэджоне (Корея) (89 км)
Погода в Сеуле (Корея) (98 км)

Пояснения к столбцам:

Ветер - указаны скорость ветра в м/с - средняя за 10 мин, порывы в срок и между сроками (в фигурных скобках) и направление, откуда дует ветер: С - северный, СВ - северо-восточный, В - восточный, ЮВ - юго-восточный, Ю - южный, ЮЗ - юго-западный, З - западный, СЗ - северо-западный.
Видимость - горизонтальная дальность видимости в метрах или километрах. При видимости от 1 до 10 км при отсутствии осадков обычно наблюдается дымка, при ухудшении видимости до 1 км и менее - туман. В сухую погоду видимость может ухудшаться дымом, пылью или мглою.
Явления - указаны атмосферные явления, наблюдавшиеся в срок или в последний час перед сроком; фигурными скобками обозначены явления, наблюдавшиеся между сроками (за 1-3 часа до срока); квадратными скобками обозначены град или гололедные отложения с указанием их диаметра в мм.
Облачность - указаны через наклонную черту общая и нижняя облачность в баллах и высота нижней границы облаков в метрах; квадратными скобками обозначены формы облаков: Ci - перистые, Cs - перисто-слоистые, Cc - перисто-кучевые, Ac - высококучевые, As - высокослоистые, Sc - слоисто-кучевые, Ns - слоисто-дождевые, Cu - кучевые, Cb - кучево-дождевые. Подробнее классификацию облаков см. в Атласе облаков (PDF).
T - Температура воздуха - температура, измеренная на высоте 2 м над землей.
Td - Температура точки росы - температура, при понижении до которой содержащийся в воздухе водяной пар достигнет насыщения.
f - Относительная влажность воздуха - влажноcть воздуха, измеренная на высоте 2 м над землей.
Te - Эффективная температура - температура, которую ощущает одетый по сезону человек в тени. Характеристика душности погоды. При расчете учитывается влияние влажности воздуха и скорости ветра на теплоощущения человека.
Tes - Эффективная температура на солнце - температура, которую ощущает человек, с поправкой на солнечный нагрев. Характеристика знойности погоды. Зависит от высоты солнца над горизонтом, облачности и скорости ветра. Ночью, в пасмурную погоду, а также при ветре 12 м/с и более поправка равна нулю.
P - Атмосферное давление - приведенное к уровню моря атмосферное давление.
Po - Атмосферное давление - измеренное на уровне метеостанции атмосферное давление.
Tmin - Минимальная температура - минимум температуры воздуха на высоте 2 м над землей.
Tmax - Максимальная температура - максимум температуры воздуха на высоте 2 м над землей.
R - Количество осадков - Количество выпавших осадков за период времени, мм. При наведении курсора мыши на число - период времени, за который выпало указанное количество осадков.
R24 - Количество осадков - Количество выпавших осадков за 24 часа, мм.
S - Снежный покров - Высота снежного покрова, см. При наведении курсора мыши на число - состояние снежного покрова и степень покрытия местности в баллах.